Location: Almena Post Office
(39.8928°N, 99.7066°W)
Time: 07:07:54
(UTC+00:00)

Cosmos 1862 - Pass Details

Date: 27 February 2020
Orbit: 539 x 556 km, 82.5° (Epoch: 06 April)

Event Time Altitude Azimuth Distance (km) Brightness Sun altitude
Rises 12:02:27 0° 340° (NNW) 2,705 6.7 -14.8°
Reaches altitude 10° 12:04:48 10° 329° (NNW) 1,809 5.7 -14.4°
Maximum altitude 12:08:15 29° 269° (W) 1,020 4.1 -13.7°
Drops below altitude 10° 12:11:40 10° 209° (SSW) 1,803 5.7 -13.0°
Sets 12:14:01 0° 198° (SSW) 2,693 6.7 -12.6°
